GW5979 Weather Reports


Display with metric or nautical units.
time (UTC)temp
F
wind
direction
speed
MPH
gust
MPH
rain 1hr
in
rain 24hr
in
rain mn
in
humidity
%
barometer
mb
20260510225234 61 180 6.0 7.0 0.00 0.06 0.06 51 1021.7
20260510224730 62 157 5.0 14.0 0.00 0.06 0.06 53 1021.8
20260510224227 62 123 7.0 11.0 0.00 0.06 0.06 52 1022.2
20260510223725 63 172 4.0 8.0 0.00 0.06 0.06 51 1022.1
20260510223222 62 210 8.0 9.0 0.00 0.06 0.06 51 1022.1
20260510222719 61 174 5.0 10.0 0.00 0.06 0.06 52 1022.3
20260510222216 61 172 4.0 11.0 0.00 0.06 0.06 53 1022.1
20260510221711 60 208 5.0 7.0 0.00 0.06 0.06 55 1022.3
20260510221209 59 180 2.0 9.0 0.00 0.06 0.06 55 1022.2
20260510220705 60 155 9.0 12.0 0.00 0.06 0.06 53 1022.2
20260510220205 61 181 4.0 9.0 0.00 0.06 0.06 52 1022.2
20260510215703 60 146 4.0 7.0 0.00 0.06 0.06 54 1022.3
20260510215201 59 165 5.0 12.0 0.00 0.06 0.06 56 1022.2
20260510214658 60 165 9.0 13.0 0.00 0.06 0.06 55 1022.3
20260510214154 62 152 7.0 17.0 0.00 0.06 0.06 53 1022.4
20260510213651 62 236 5.0 9.0 0.00 0.06 0.06 53 1022.6
20260510213148 61 169 7.0 10.0 0.00 0.06 0.06 54 1022.4
20260510212644 61 194 8.0 15.0 0.00 0.06 0.06 55 1022.6
20260510212141 62 178 6.0 12.0 0.00 0.06 0.06 53 1022.4
20260510211638 62 192 7.0 13.0 0.00 0.06 0.06 52 1022.4
20260510211133 62 208 6.0 7.0 0.00 0.06 0.06 50 1022.6
20260510210630 61 167 6.0 12.0 0.00 0.06 0.06 52 1022.7
20260510210125 59 178 8.0 12.0 0.00 0.06 0.06 55 1022.7
20260510205624 59 150 3.0 12.0 0.00 0.06 0.06 56 1022.8
20260510205120 60 187 5.0 10.0 0.00 0.06 0.06 54 1022.7
20260510204616 60 206 5.0 9.0 0.00 0.06 0.06 53 1022.9
20260510204113 62 178 6.0 10.0 0.00 0.06 0.06 50 1022.9
20260510203610 62 101 2.0 5.0 0.00 0.06 0.06 51 1022.9
20260510203107 59 129 4.0 9.0 0.00 0.06 0.06 55 1022.9
20260510202606 59 179 3.0 8.0 0.00 0.06 0.06 57 1022.9
20260510202102 59 155 8.0 10.0 0.00 0.06 0.06 57 1022.9
20260510201600 58 172 4.0 10.0 0.00 0.06 0.06 60 1023.2
20260510201057 59 182 7.0 13.0 0.00 0.06 0.06 59 1022.9
20260510200552 60 176 6.0 16.0 0.00 0.06 0.06 58 1023.2
20260510200051 60 265 2.0 16.0 0.00 0.06 0.06 57 1023.1
20260510195548 61 165 13.0 14.0 0.00 0.06 0.06 56 1023.1
20260510195044 61 183 6.0 9.0 0.00 0.06 0.06 53 1022.9
20260510194539 60 180 7.0 12.0 0.00 0.06 0.06 53 1023.1
20260510194036 59 194 5.0 10.0 0.00 0.06 0.06 54 1023.2
20260510193530 57 187 9.0 12.0 0.00 0.06 0.06 58 1023.1
20260510193026 59 181 2.0 7.0 0.00 0.06 0.06 54 1022.9
20260510192526 59 177 6.0 13.0 0.00 0.06 0.06 53 1023.1
20260510192023 58 185 5.0 12.0 0.00 0.06 0.06 60 1023.1
20260510191519 59 189 2.0 6.0 0.00 0.06 0.06 58 1023.2
20260510191016 58 157 7.0 13.0 0.00 0.06 0.06 59 1023.2
20260510190513 59 183 8.0 11.0 0.00 0.06 0.06 58 1023.1
20260510190010 57 158 5.0 13.0 0.00 0.06 0.06 58 1023.3
20260510185507 57 192 3.0 9.0 0.00 0.06 0.06 59 1023.2
20260510185004 57 160 4.0 9.0 0.00 0.06 0.06 61 1023.4
20260510184502 56 140 5.0 10.0 0.00 0.06 0.06 61 1023.3
20260510184001 57 190 6.0 15.0 0.00 0.06 0.06 62 1023.2
20260510183458 58 177 5.0 8.0 0.00 0.06 0.06 60 1023.3
20260510182953 56 151 5.0 13.0 0.00 0.06 0.06 64 1023.4
20260510182449 55 168 5.0 10.0 0.00 0.06 0.06 64 1023.5
20260510181944 56 170 3.0 9.0 0.00 0.06 0.06 64 1023.7
20260510181443 55 157 8.0 15.0 0.00 0.06 0.06 65 1023.7
20260510180938 54 163 2.0 10.0 0.00 0.06 0.06 65 1023.5
20260510180436 53 261 2.0 5.0 0.00 0.06 0.06 67 1023.4
20260510175933 53 129 3.0 10.0 0.00 0.06 0.06 67 1023.7
20260510175429 53 107 4.0 11.0 0.00 0.06 0.06 69 1023.9
20260510174924 54 182 3.0 8.0 0.00 0.06 0.06 68 1023.8
20260510174423 55 157 10.0 12.0 0.00 0.06 0.06 68 1023.9
20260510173919 54 183 5.0 12.0 0.00 0.06 0.06 67 1023.7
20260510173415 54 147 6.0 13.0 0.00 0.06 0.06 68 1023.8
20260510172912 53 165 2.0 6.0 0.00 0.06 0.06 70 1023.8
20260510172408 54 174 8.0 9.0 0.00 0.06 0.06 68 1023.7
20260510171903 53 180 3.0 6.0 0.00 0.06 0.06 69 1024.0
20260510171401 53 170 2.0 7.0 0.00 0.06 0.06 69 1023.7
20260510170858 54 144 6.0 7.0 0.00 0.06 0.06 68 1023.8
20260510170355 53 165 7.0 12.0 0.00 0.06 0.06 70 1023.8
20260510165850 52 172 3.0 10.0 0.00 0.06 0.06 69 1023.5
20260510165346 52 166 4.0 9.0 0.00 0.06 0.06 71 1023.5
20260510164844 52 174 6.0 12.0 0.00 0.06 0.06 72 1023.7
20260510164342 52 171 5.0 6.0 0.00 0.06 0.06 74 1023.8
20260510163841 51 113 6.0 6.0 0.00 0.06 0.06 76 1023.7
20260510163338 51 172 4.0 9.0 0.00 0.06 0.06 75 1023.5
20260510162837 51 154 7.0 10.0 0.00 0.06 0.06 76 1023.8
20260510162335 51 135 6.0 11.0 0.00 0.06 0.06 77 1023.7
20260510161830 51 159 6.0 10.0 0.00 0.06 0.06 77 1023.7
20260510161327 51 178 4.0 7.0 0.00 0.06 0.06 76 1023.8
20260510160824 50 147 6.0 7.0 0.00 0.06 0.06 78 1023.5
20260510160321 50 145 6.0 9.0 0.00 0.06 0.06 78 1023.8
20260510155820 48 142 7.0 9.0 0.00 0.06 0.06 81 1023.8
20260510155312 48 248 2.0 7.0 0.00 0.06 0.06 83 1023.7
20260510154808 47 180 4.0 9.0 0.00 0.06 0.06 84 1023.9
20260510154304 47 184 3.0 6.0 0.00 0.06 0.06 84 1024.0
20260510153804 47 157 3.0 4.0 0.00 0.06 0.06 84 1023.7
20260510153300 47 169 3.0 5.0 0.00 0.06 0.06 84 1023.7
20260510152757 47 215 3.0 5.0 0.00 0.06 0.06 86 1023.8
20260510152254 47 123 4.0 5.0 0.00 0.06 0.06 87 1023.8
20260510151750 46 185 2.0 5.0 0.00 0.06 0.06 87 1023.7
20260510151249 46 170 3.0 4.0 0.00 0.06 0.06 88 1023.7
20260510150744 46 204 2.0 6.0 0.00 0.06 0.06 88 1023.5
20260510150240 45 176 3.0 6.0 0.00 0.06 0.06 89 1023.8
20260510145736 45 170 3.0 6.0 0.00 0.06 0.06 90 1023.8
20260510145233 45 131 3.0 4.0 0.00 0.06 0.06 90 1023.8
20260510144728 45 157 4.0 4.0 0.00 0.06 0.06 90 1023.9
20260510144226 46 146 1.0 2.0 0.00 0.06 0.06 90 1023.9
20260510143720 45 151 2.0 4.0 0.00 0.06 0.06 90 1023.7
20260510143217 45 155 1.0 2.0 0.00 0.06 0.06 90 1023.7
20260510142713 45 126 0.0 2.0 0.00 0.06 0.06 91 1023.5
20260510142210 45 144 0.0 2.0 0.00 0.06 0.06 91 1023.4
20260510141707 45 141 2.0 2.0 0.00 0.06 0.06 92 1023.5
20260510141206 45 113 2.0 3.0 0.00 0.06 0.06 93 1023.3
20260510140701 44 142 1.0 4.0 0.00 0.06 0.06 93 1023.3
20260510140201 44 108 4.0 4.0 0.00 0.06 0.06 94 1023.4
20260510135656 44 113 4.0 5.0 0.00 0.06 0.06 94 1023.4
20260510135152 44 133 3.0 5.0 0.00 0.06 0.06 94 1023.3
20260510134650 44 82 4.0 4.0 0.00 0.06 0.06 94 1023.5
20260510134147 44 121 4.0 4.0 0.00 0.06 0.06 94 1023.2
20260510133643 44 95 3.0 5.0 0.00 0.06 0.06 94 1023.3
20260510133138 44 98 3.0 4.0 0.00 0.06 0.06 94 1023.3
20260510132635 44 198 2.0 5.0 0.00 0.06 0.06 94 1023.2
20260510132133 44 111 2.0 4.0 0.00 0.06 0.06 94 1023.3
20260510131630 44 117 2.0 3.0 0.00 0.06 0.06 94 1023.2
20260510131127 43 139 1.0 4.0 0.00 0.06 0.06 94 1023.2
20260510130624 44 147 2.0 3.0 0.00 0.06 0.06 95 1022.7
20260510130121 43 86 1.0 3.0 0.00 0.06 0.06 95 1023.1
20260510125617 43 104 3.0 4.0 0.00 0.06 0.06 95 1022.8
20260510125114 43 138 1.0 3.0 0.00 0.06 0.06 96 1022.8
20260510124610 43 124 0.0 2.0 0.00 0.06 0.06 96 1022.7
20260510124107 43 126 1.0 2.0 0.00 0.06 0.06 96 1022.6
20260510123603 43 146 2.0 3.0 0.00 0.06 0.06 96 1022.4
20260510123059 43 117 2.0 2.0 0.00 0.06 0.06 96 1022.4
20260510122555 42 97 2.0 4.0 0.00 0.06 0.06 96 1022.3
20260510122051 42 66 3.0 4.0 0.00 0.06 0.06 96 1022.4
20260510121548 42 40 3.0 5.0 0.00 0.06 0.06 96 1022.3
20260510121045 42 27 3.0 4.0 0.00 0.06 0.06 96 1022.3
20260510120543 42 43 3.0 3.0 0.00 0.06 0.06 96 1022.3
20260510120038 42 25 3.0 4.0 0.00 0.06 0.06 96 1022.1
20260510115535 42 7 2.0 3.0 0.00 0.06 0.06 96 1021.8
20260510115032 42 8 0.0 2.0 0.00 0.06 0.06 96 1021.8
20260510114528 42 166 0.0 1.0 0.00 0.06 0.06 95 1022.0
20260510114024 42 208 1.0 2.0 0.00 0.06 0.06 95 1021.8
20260510113520 42 181 2.0 5.0 0.00 0.06 0.06 95 1021.8
20260510113018 43 166 4.0 6.0 0.00 0.06 0.06 95 1022.0
20260510112514 43 135 4.0 5.0 0.00 0.06 0.06 94 1022.0
20260510112010 43 186 1.0 5.0 0.00 0.06 0.06 94 1022.0
20260510111507 43 132 3.0 4.0 0.00 0.06 0.06 94 1022.0
20260510111003 43 95 3.0 5.0 0.00 0.06 0.06 94 1022.2
20260510110459 43 152 4.0 5.0 0.00 0.06 0.06 93 1022.3
20260510105955 44 111 3.0 4.0 0.00 0.06 0.06 93 1022.3
20260510105451 43 149 2.0 4.0 0.00 0.06 0.06 92 1022.2
20260510104946 43 88 2.0 3.0 0.00 0.06 0.06 92 1022.2
20260510104443 43 114 3.0 3.0 0.00 0.06 0.06 93 1022.1
20260510103939 44 167 2.0 3.0 0.00 0.06 0.06 93 1022.1
20260510103437 43 145 2.0 4.0 0.00 0.06 0.06 93 1022.3
20260510102932 43 144 3.0 3.0 0.00 0.06 0.06 93 1022.1
20260510102428 43 117 2.0 3.0 0.00 0.06 0.06 94 1022.2
20260510101925 43 139 0.0 1.0 0.00 0.06 0.06 94 1022.0
20260510101423 43 142 0.0 2.0 0.00 0.06 0.06 94 1021.8
20260510100921 43 103 3.0 4.0 0.00 0.06 0.06 94 1021.8
20260510100417 43 96 3.0 4.0 0.00 0.06 0.06 94 1022.0
20260510095913 43 44 0.0 0.0 0.00 0.06 0.06 94 1022.2
20260510095408 43 57 2.0 2.0 0.00 0.06 0.06 94 1022.0
20260510094908 43 135 1.0 2.0 0.00 0.06 0.06 94 1022.2
20260510094403 43 104 0.0 1.0 0.02 0.06 0.06 94 1022.1
20260510093859 43 155 2.0 3.0 0.02 0.06 0.06 94 1021.7
20260510093355 43 135 0.0 2.0 0.00 0.06 0.06 94 1021.8
20260510092851 43 76 0.0 2.0 0.05 0.06 0.06 94 1022.2
20260510092349 43 20 2.0 2.0 0.07 0.06 0.06 94 1021.8
20260510091843 43 348 1.0 3.0 0.05 0.05 0.05 93 1022.0
20260510091341 43 215 0.0 4.0 0.02 0.04 0.04 93 1022.0
20260510090837 43 32 0.0 2.0 0.07 0.04 0.04 93 1021.8
20260510090334 43 97 0.0 4.0 0.09 0.04 0.04 92 1021.7
20260510085830 44 318 4.0 4.0 0.07 0.03 0.03 92 1021.6
20260510085330 43 325 2.0 7.0 0.00 0.02 0.02 91 1021.5
20260510084826 44 317 4.0 7.0 0.02 0.02 0.02 91 1021.5
20260510084323 44 352 4.0 5.0 0.02 0.02 0.02 91 1021.3
20260510083820 43 74 1.0 5.0 0.00 0.01 0.01 91 1021.0
20260510083317 44 351 3.0 6.0 0.00 0.01 0.01 91 1021.0
20260510082812 44 0 6.0 7.0 0.00 0.01 0.01 90 1021.2
20260510082310 44 344 2.0 5.0 0.00 0.01 0.01 91 1021.2
20260510081809 44 344 6.0 6.0 0.00 0.01 0.01 91 1021.2
20260510081304 44 318 3.0 4.0 0.00 0.01 0.01 91 1021.1
20260510080800 44 326 4.0 6.0 0.00 0.01 0.01 90 1021.3
20260510080255 44 336 5.0 6.0 0.00 0.01 0.01 90 1021.5
20260510075752 44 353 6.0 7.0 0.00 0.01 0.01 90 1021.3
20260510075250 44 11 8.0 10.0 0.00 0.01 0.01 89 1021.3
20260510074747 44 331 5.0 6.0 0.00 0.01 0.01 89 1021.3
20260510074243 44 20 5.0 8.0 0.00 0.01 0.01 89 1021.5
20260510073739 44 1 6.0 7.0 0.00 0.01 0.01 89 1021.5
20260510073236 44 335 6.0 8.0 0.00 0.01 0.01 88 1021.5
20260510072731 45 316 4.0 5.0 0.00 0.01 0.01 89 1021.5
20260510072228 45 358 3.0 10.0 0.00 0.01 0.01 89 1021.3
20260510071725 45 334 5.0 7.0 0.00 0.01 0.01 89 1021.1
20260510071221 45 330 3.0 11.0 0.00 0.01 0.01 88 1021.2
20260510070720 45 9 7.0 13.0 0.00 0.01 0.01 88 1021.2
20260510070217 45 13 8.0 11.0 0.00 0.01 0.01 88 1020.9
20260510065711 44 345 10.0 16.0 0.00 0.01 0.01 88 1020.9
20260510065208 44 6 8.0 14.0 0.00 0.01 0.01 89 1021.0
20260510064705 44 0 8.0 14.0 0.00 0.01 0.01 90 1021.1
20260510064203 44 2 6.0 9.0 0.00 0.01 0.01 91 1021.0
20260510063659 44 1 9.0 17.0 0.00 0.01 0.01 91 1020.9
20260510063155 44 5 6.0 9.0 0.02 0.01 0.01 91 1021.0
20260510062652 44 25 13.0 22.0 0.02 0.01 0.01 90 1020.5
20260510062147 44 11 15.0 25.0 0.00 0.01 0.01 90 1020.4
20260510061643 44 12 17.0 20.0 0.02 0.01 0.01 90 1020.9
20260510061141 44 12 17.0 22.0 0.02 0.00 0.00 89 1020.6
20260510060637 45 0 11.0 18.0 0.00 0.00 0.00 88 1021.0
20260510060133 45 346 7.0 14.0 0.00 0.00 0.00 86 1021.1
20260510055630 45 299 6.0 19.0 0.00 0.00 0.00 85 1021.0
20260510055128 45 337 10.0 13.0 0.00 0.00 0.00 86 1021.3
20260510054623 45 305 6.0 24.0 0.00 0.00 0.00 85 1020.9
20260510054119 46 354 10.0 22.0 0.00 0.00 0.00 83 1020.6
20260510053618 46 332 9.0 17.0 0.00 0.00 0.00 82 1020.6
20260510053115 46 321 10.0 15.0 0.00 0.00 0.00 83 1020.5
20260510052611 46 337 9.0 17.0 0.00 0.00 0.00 83 1020.4
20260510052108 46 329 9.0 14.0 0.00 0.00 0.00 83 1020.1
20260510051603 46 0 7.0 10.0 0.00 0.00 0.00 82 1020.5
20260510051100 46 354 7.0 14.0 0.00 0.00 0.00 82 1020.5
20260510050557 46 13 7.0 11.0 0.00 0.00 0.00 81 1020.5
20260510050054 46 345 10.0 17.0 0.00 0.00 0.00 81 1020.2
20260510045552 46 321 5.0 9.0 0.00 0.00 0.00 81 1020.1
20260510045047 46 328 7.0 16.0 0.00 0.00 0.00 80 1020.2
20260510044544 46 353 7.0 20.0 0.00 0.00 0.00 80 1020.2
20260510044042 46 329 11.0 16.0 0.00 0.00 0.00 79 1019.9
20260510043537 46 327 10.0 22.0 0.00 0.00 0.00 79 1019.6
20260510043033 47 330 9.0 22.0 0.00 0.00 0.00 78 1019.8
20260510042527 47 358 6.0 18.0 0.00 0.00 0.00 77 1019.8
20260510042027 47 328 13.0 24.0 0.00 0.00 0.00 76 1019.4
20260510041525 47 359 19.0 20.0 0.00 0.00 0.00 76 1019.1
20260510041023 47 296 5.0 21.0 0.00 0.00 0.00 75 1019.1
20260510040519 48 344 11.0 16.0 0.00 0.00 0.00 75 1019.3
20260510040014 48 328 16.0 22.0 0.00 0.00 0.00 74 1019.1
20260510035512 48 339 14.0 21.0 0.00 0.00 0.00 74 1018.9
20260510035010 48 350 9.0 22.0 0.00 0.00 0.00 74 1018.9
20260510034510 48 328 7.0 22.0 0.00 0.00 0.00 74 1018.8
20260510034006 48 352 14.0 18.0 0.00 0.00 0.00 74 1018.3
20260510033502 48 312 11.0 23.0 0.00 0.00 0.00 74 1018.4
20260510033000 49 336 17.0 20.0 0.00 0.00 0.00 73 1018.2
20260510032457 49 312 10.0 16.0 0.00 0.00 0.00 71 1018.0
20260510031956 50 336 8.0 27.0 0.00 0.00 0.00 69 1017.8
20260510031452 51 325 15.0 21.0 0.00 0.00 0.00 65 1017.9
20260510030948 51 330 13.0 16.0 0.00 0.00 0.00 62 1017.3
20260510030443 52 345 17.0 24.0 0.00 0.00 0.00 60 1017.1
20260510025941 53 331 9.0 20.0 0.00 0.00 0.00 58 1016.8
20260510025438 54 354 7.0 26.0 0.00 0.00 0.00 55 1016.7
20260510024936 55 334 14.0 32.0 0.00 0.00 0.00 52 1016.3
20260510024432 57 342 8.0 22.0 0.00 0.00 0.00 50 1016.0
20260510023928 58 304 10.0 21.0 0.00 0.00 0.00 46 1015.7
20260510023424 59 354 6.0 8.0 0.00 0.00 0.00 39 1015.5
20260510022922 60 338 0.0 2.0 0.00 0.00 0.00 38 1014.7
20260510022421 59 352 0.0 3.0 0.00 0.00 0.00 38 1014.6
20260510021920 59 283 0.0 1.0 0.00 0.00 0.00 39 1014.4
20260510021418 59 359 2.0 2.0 0.00 0.00 0.00 38 1014.4
20260510020915 59 142 0.0 1.0 0.00 0.00 0.00 39 1014.1
20260510020410 60 323 0.0 2.0 0.00 0.00 0.00 38 1014.1
20260510015906 59 205 0.0 1.0 0.00 0.00 0.00 39 1014.0
20260510015401 60 173 0.0 1.0 0.00 0.00 0.00 37 1013.9
20260510014857 60 326 0.0 1.0 0.00 0.00 0.00 38 1013.5
20260510014355 60 152 0.0 2.0 0.00 0.00 0.00 38 1013.8
20260510013850 60 103 2.0 3.0 0.00 0.00 0.00 37 1013.6
20260510013346 61 88 1.0 3.0 0.00 0.00 0.00 35 1013.6
20260510012841 61 67 2.0 3.0 0.00 0.00 0.00 35 1013.3
20260510012341 61 132 2.0 3.0 0.00 0.00 0.00 35 1013.4
20260510011836 62 167 2.0 4.0 0.00 0.00 0.00 34 1013.5
20260510011331 62 86 3.0 4.0 0.00 0.00 0.00 34 1013.8
20260510010828 63 100 3.0 3.0 0.00 0.00 0.00 34 1013.6
20260510010326 63 36 2.0 5.0 0.00 0.00 0.00 34 1013.5
20260510005822 63 7 5.0 5.0 0.00 0.00 0.00 33 1013.6
20260510005319 63 356 4.0 4.0 0.00 0.00 0.00 32 1013.5
20260510004816 64 52 2.0 3.0 0.00 0.00 0.00 32 1013.4
20260510004313 64 124 2.0 4.0 0.00 0.00 0.00 31 1013.3
20260510003811 64 22 2.0 6.0 0.00 0.00 0.00 30 1013.3
20260510003308 64 356 3.0 5.0 0.00 0.00 0.00 30 1013.1
20260510002806 64 9 4.0 7.0 0.00 0.00 0.00 29 1012.9
20260510002306 64 44 5.0 5.0 0.00 0.00 0.00 28 1012.7
20260510001800 64 3 3.0 4.0 0.00 0.00 0.00 29 1012.8
20260510001259 64 11 3.0 8.0 0.00 0.00 0.00 29 1012.8
20260510000754 65 71 4.0 9.0 0.00 0.00 0.00 28 1012.9
20260510000252 65 33 2.0 5.0 0.00 0.00 0.00 25 1012.8
20260509235749 66 64 6.0 11.0 0.00 0.00 0.00 25 1012.4
20260509235245 66 289 5.0 8.0 0.00 0.00 0.00 23 1012.7
20260509234741 66 295 4.0 12.0 0.00 0.00 0.00 23 1012.7
20260509234238 65 355 5.0 12.0 0.00 0.00 0.00 23 1012.7
20260509233737 64 337 14.0 19.0 0.00 0.00 0.00 32 1013.3
20260509233234 64 46 5.0 7.0 0.00 0.00 0.00 31 1013.0
20260509232729 64 11 5.0 6.0 0.00 0.00 0.00 29 1012.9
20260509232227 64 33 4.0 6.0 0.00 0.00 0.00 28 1012.7
20260509231723 64 15 6.0 10.0 0.00 0.00 0.00 28 1012.8
20260509231220 64 9 4.0 12.0 0.00 0.00 0.00 29 1012.9
20260509230718 64 352 8.0 13.0 0.00 0.00 0.00 29 1013.1
20260509230214 64 0 5.0 8.0 0.00 0.00 0.00 32 1012.9
20260509225710 64 57 8.0 11.0 0.00 0.00 0.00 31 1012.7